This demonstration page uses our WeatherBlox Daily Observations layout. Learn more.

Left ArrowRight Arrow

Hourly Observations for February 13, 2015

Temp ( °F °C ) Dew Point ( °F °C ) Humidity (%) Winds ( mph kmh ) Pressure ( in mb ) Visibility ( mi km ) Precip ( " mm )
12:15 am 00:15 Clear 21 -6 10 -12 63 63 SSW 10 17 30.30 1026 10 16 0.00 0.00
12:35 am 00:35 Clear 21 -6 10 -12 63 63 SW 13 20 30.30 1026 10 16 0.00 0.00
12:55 am 00:55 Clear 21 -6 10 -12 63 63 SW 12 19 30.30 1026 10 16 0.00 0.00
1:15 am 01:15 Clear 21 -6 10 -12 63 63 SW 12 19 30.30 1026 10 16 0.00 0.00
1:35 am 01:35 Clear 21 -6 10 -12 63 63 SW 9 15 30.30 1026 10 16 0.00 0.00
1:55 am 01:55 Clear 21 -6 10 -12 63 63 SW 8 13 30.30 1026 10 16 0.00 0.00
2:15 am 02:15 Clear 21 -6 10 -12 63 63 SW 9 15 30.27 1025 10 16 0.00 0.00
2:35 am 02:35 Clear 21 -6 10 -12 63 63 WSW 8 13 30.27 1025 10 16 0.00 0.00
2:55 am 02:55 Clear 21 -6 10 -12 63 63 WSW 6 9 30.30 1026 10 16 0.00 0.00
3:15 am 03:15 Clear 23 -5 10 -12 58 58 WSW 6 9 30.27 1025 10 16 0.00 0.00
3:35 am 03:35 Clear 23 -5 10 -12 58 58 WSW 3 6 30.27 1025 10 16 0.00 0.00
3:55 am 03:55 Clear 23 -5 12 -11 63 63 Calm 30.27 1025 10 16 0.00 0.00
4:15 am 04:15 Clear 23 -5 12 -11 63 63 Calm 30.27 1025 10 16 0.00 0.00
4:35 am 04:35 Clear 23 -5 12 -11 63 63 Calm 30.27 1025 10 16 0.00 0.00
4:55 am 04:55 Clear 23 -5 12 -11 63 63 Calm 30.27 1025 10 16 0.00 0.00
5:15 am 05:15 Clear 25 -4 12 -11 59 59 Calm 30.24 1024 10 16 0.00 0.00
5:35 am 05:35 Clear 23 -5 16 -9 74 74 Calm 30.27 1025 10 16 0.00 0.00
5:55 am 05:55 Clear 25 -4 16 -9 69 69 WNW 5 7 30.24 1024 10 16 0.00 0.00
6:15 am 06:15 Clear 23 -5 16 -9 74 74 WNW 6 9 30.27 1025 10 16 0.00 0.00
6:35 am 06:35 Clear 25 -4 19 -7 80 80 WNW 7 11 30.30 1026 10 16 0.00 0.00
6:55 am 06:55 Clear 27 -3 21 -6 80 80 WNW 8 13 30.27 1025 10 16 0.00 0.00
7:15 am 07:15 Clear 27 -3 21 -6 80 80 WNW 7 11 30.27 1025 10 16 0.00 0.00
7:35 am 07:35 Sunny 28 -2 23 -5 80 80 WNW 9 15 30.27 1025 10 16 0.00 0.00
7:55 am 07:55 Sunny 28 -2 23 -5 80 80 WNW 9 15 30.27 1025 10 16 0.00 0.00
8:15 am 08:15 Sunny 30 -1 25 -4 80 80 WNW 8 13 30.30 1026 10 16 0.00 0.00
8:35 am 08:35 Sunny 30 -1 25 -4 80 80 WNW 8 13 30.30 1026 10 16 0.00 0.00
8:55 am 08:55 Sunny 34 1 27 -3 75 75 WNW 10 17 30.27 1025 10 16 0.00 0.00
9:15 am 09:15 Sunny 34 1 27 -3 75 75 WNW 10 17 30.27 1025 10 16 0.00 0.00
9:35 am 09:35 Sunny 37 3 28 -2 70 70 NW 10 17 30.24 1024 10 16 0.00 0.00
9:55 am 09:55 Sunny 41 5 28 -2 61 61 NNW 12 19 30.24 1024 10 16 0.00 0.00
10:15 am 10:15 Sunny 43 6 28 -2 57 57 NW 14 22 30.24 1024 10 16 0.00 0.00
10:35 am 10:35 Sunny 45 7 28 -2 53 53 NW 15 24 30.24 1024 10 16 0.00 0.00
10:55 am 10:55 Sunny 45 7 28 -2 53 53 NW 14 22 30.21 1023 10 16 0.00 0.00
11:15 am 11:15 Sunny 45 7 28 -2 53 53 WNW 14 22 30.24 1024 10 16 0.00 0.00
11:35 am 11:35 Sunny 46 8 30 -1 53 53 WNW 12 19 30.24 1024 10 16 0.00 0.00
11:55 am 11:55 Sunny 48 9 28 -2 46 46 W 10 17 30.24 1024 10 16 0.00 0.00
12:15 pm 12:15 Sunny 48 9 28 -2 46 46 WNW 14 22 30.24 1024 10 16 0.00 0.00
12:35 pm 12:35 Sunny 50 10 30 -1 47 47 NW 13 20 30.18 1022 10 16 0.00 0.00
12:55 pm 12:55 Sunny 52 11 30 -1 44 44 NW 13 20 30.18 1022 10 16 0.00 0.00
1:15 pm 13:15 Sunny 52 11 30 -1 44 44 WNW 13 20 30.18 1022 10 16 0.00 0.00
1:35 pm 13:35 Sunny 54 12 30 -1 41 41 NW 13 20 30.18 1022 10 16 0.00 0.00
1:55 pm 13:55 Sunny 55 13 30 -1 38 38 WNW 14 22 30.15 1021 10 16 0.00 0.00
2:15 pm 14:15 Sunny 57 14 30 -1 36 36 NW 13 20 30.12 1020 10 16 0.00 0.00
2:35 pm 14:35 Sunny 57 14 30 -1 36 36 NNW 15 24 30.12 1020 10 16 0.00 0.00
2:55 pm 14:55 Sunny 57 14 30 -1 36 36 NNW 12 19 30.12 1020 10 16 0.00 0.00
3:15 pm 15:15 Sunny 59 15 28 -2 31 31 NW 12 19 30.09 1019 10 16 0.00 0.00
3:35 pm 15:35 Sunny 57 14 28 -2 33 33 NNW 9 15 30.09 1019 10 16 0.00 0.00
3:55 pm 15:55 Sunny 59 15 28 -2 31 31 NW 14 22 30.09 1019 10 16 0.00 0.00
4:15 pm 16:15 Sunny 57 14 28 -2 33 33 NW 13 20 30.09 1019 10 16 0.00 0.00
4:35 pm 16:35 Sunny 57 14 28 -2 33 33 WNW 12 19 30.09 1019 10 16 0.00 0.00
4:55 pm 16:55 Sunny 57 14 28 -2 33 33 W 9 15 30.09 1019 10 16 0.00 0.00
5:15 pm 17:15 Sunny 57 14 28 -2 33 33 W 9 15 30.09 1019 10 16 0.00 0.00
5:35 pm 17:35 Sunny 55 13 28 -2 36 36 W 7 11 30.09 1019 10 16 0.00 0.00
5:55 pm 17:55 Sunny 54 12 28 -2 38 38 WNW 7 11 30.12 1020 10 16 0.00 0.00
6:15 pm 18:15 Clear 52 11 28 -2 41 41 W 6 9 30.12 1020 10 16 0.00 0.00
6:35 pm 18:35 Clear 52 11 27 -3 38 38 W 6 9 30.12 1020 10 16 0.00 0.00
6:55 pm 18:55 Clear 52 11 28 -2 41 41 WSW 7 11 30.12 1020 10 16 0.00 0.00
7:15 pm 19:15 Clear 50 10 28 -2 43 43 WSW 7 11 30.12 1020 10 16 0.00 0.00
7:35 pm 19:35 Clear 48 9 28 -2 46 46 SW 8 13 30.15 1021 10 16 0.00 0.00
7:55 pm 19:55 Clear 46 8 28 -2 50 50 SW 7 11 30.15 1021 10 16 0.00 0.00
8:15 pm 20:15 Clear 43 6 27 -3 53 53 SW 8 13 30.15 1021 10 16 0.00 0.00
8:35 pm 20:35 Clear 43 6 27 -3 53 53 SW 9 15 30.15 1021 10 16 0.00 0.00
8:55 pm 20:55 Clear 43 6 27 -3 53 53 SW 10 17 30.15 1021 10 16 0.00 0.00
9:15 pm 21:15 Clear 43 6 27 -3 53 53 SW 10 17 30.15 1021 10 16 0.00 0.00
9:35 pm 21:35 Clear 43 6 27 -3 53 53 SW 12 19 30.15 1021 10 16 0.00 0.00
9:55 pm 21:55 Clear 43 6 27 -3 53 53 SW 9 15 30.15 1021 10 16 0.00 0.00
10:15 pm 22:15 Clear 43 6 27 -3 53 53 SW 10 17 30.12 1020 10 16 0.00 0.00
10:35 pm 22:35 Clear 43 6 27 -3 53 53 WSW 9 15 30.12 1020 10 16 0.00 0.00
10:55 pm 22:55 Clear 41 5 27 -3 57 57 WSW 10 17 30.15 1021 10 16 0.00 0.00
11:15 pm 23:15 Mostly Clear 41 5 27 -3 57 57 WSW 10 17 30.15 1021 10 16 0.00 0.00
11:35 pm 23:35 Mostly Clear 43 6 27 -3 53 53 WSW 10 17 30.12 1020 10 16 0.00 0.00
11:55 pm 23:55 Mostly Clear 45 7 28 -2 53 53 WSW 10 17 30.12 1020 10 16 0.00 0.00

Powered by AerisWeather